QPF
0.00 0.00 0.00 0.00 0.00 0.00 0.00 0.00 0.00 0.00 0.00 0.00 0.00 0.00 0.00 0.00 0.00 0.00 0.00 0.00 0.00 0.00 0.00 0.00 0.00 0.00 0.00 0.00 0.00 0.00 0.00 0.00 0.00 0.00 0.00 0.00 0.00 0.00 0.00 0.00 0.00 0.00 0.00 0.00 0.00
0.00 0.00 0.00 0.00 0.00 0.00 0.00 0.00 0.00 0.00 0.00 0.00 0.00 0.00 0.00 0.00 0.00 0.00 0.00 0.00 0.00 0.00 0.00 0.00 0.00 0.00 0.00 0.00 0.00 0.00 0.00 0.00 0.00 0.00 0.00 0.00 0.00 0.00 0.00 0.00 0.00 0.00 0.00 0.00 0.00
0.00 0.00 0.00 0.00 0.00 0.00 0.00 0.00 0.00 0.00 0.00 0.00 0.00 0.00 0.00 0.00 0.00 0.00 0.00 0.00 0.00 0.00 0.00 0.00 0.00 0.00 0.00 0.00 0.00 0.00 0.00 0.00 0.00 0.00 0.00 0.00 0.00 0.00 0.00 0.00 0.00 0.00 0.00 0.00 0.00
0.00 0.00 0.00 0.00 0.00 0.00 0.00 0.00 0.00 0.00 0.00 0.00 0.00 0.00 0.00 0.00 0.00 0.00 0.00 0.00 0.00 0.00 0.00 0.00 0.00 0.00 0.00 0.00 0.00 0.00 0.00 0.00 0.00 0.00 0.00 0.00 0.00 0.00 0.00 0.00 0.00 0.00 0.00 0.00 0.00
0.00 0.00 0.00 0.00 0.00 0.00 0.00 0.00 0.00 0.00 0.00 0.00 0.00 0.00 0.00 0.00 0.00 0.00 0.00 0.00 0.00 0.00 0.00 0.00 0.00 0.00 0.00 0.00 0.00 0.00 0.00 0.00 0.00 0.00 0.00 0.00 0.00 0.00 0.00 0.00 0.00 0.00 0.00 0.00 0.00
0.00 0.00 0.00 0.00 0.00 0.00 0.00 0.00 0.00 0.00 0.00 0.00 0.00 0.00 0.00 0.00 0.00 0.00 0.00 0.00 0.00 0.00 0.00 0.00 0.00 0.00 0.00 0.00 0.00 0.00 0.00 0.00 0.00 0.00 0.00 0.00 0.00 0.00 0.00 0.00 0.00 0.00 0.00 0.00 0.00
0.00 0.00 0.00 0.00 0.00 0.00 0.00 0.00 0.00 0.00 0.00 0.00 0.00 0.00 0.00 0.00 0.00 0.00 0.00 0.00 0.00 0.00 0.00 0.00 0.00 0.00 0.00 0.00 0.00 0.00 0.00 0.00 0.00 0.00 0.00 0.00 0.00 0.00 0.00 0.00 0.00 0.00 0.00 0.00 0.00
0.00 0.00 0.00 0.00 0.00 0.00 0.00 0.00 0.00 0.00 0.00 0.00 0.00 0.00 0.00 0.00 0.00 0.00 0.00 0.00 0.00 0.00 0.00 0.00 0.00 0.00 0.00 0.00 0.00 0.00 0.00 0.00 0.00 0.00 0.00 0.00 0.00 0.00 0.00 0.00 0.00 0.00 0.00 0.00 0.00
0.00 0.00 0.00 0.00 0.00 0.00 0.00 0.00 0.00 0.00 0.00 0.00 0.00 0.00 0.00 0.00 0.00 0.00 0.00 0.00 0.00 0.00 0.00 0.00 0.00 0.00 0.00 0.00 0.00 0.00 0.00 0.00 0.00 0.00 0.00 0.00 0.00 0.00 0.00 0.00 0.00 0.00 0.00 0.00 0.00
0.00 0.00 0.00 0.00 0.00 0.00 0.00 0.00 0.00 0.00 0.00 0.00 0.00 0.00 0.00 0.00 0.00 0.00 0.00 0.00 0.00 0.00 0.00 0.00 0.00 0.00 0.00 0.00 0.00 0.00 0.00 0.00 0.00 0.00 0.00 0.00 0.00 0.00 0.00 0.00 0.00 0.00 0.00 0.00 0.00
0.00 0.00 0.00 0.00 0.00 0.00 0.00 0.00 0.00 0.00 0.00 0.00 0.00 0.00 0.00 0.00 0.00 0.00 0.00 0.00 0.00 0.00 0.00 0.00 0.00 0.00 0.00 0.00 0.00 0.00 0.00 0.00 0.00 0.00 0.00 0.00 0.00 0.00 0.00 0.00 0.00 0.00 0.00 0.00 0.00
0.00 0.00 0.00 0.00 0.00 0.00 0.00 0.00 0.00 0.00 0.00 0.00 0.00 0.00 0.00 0.00 0.00 0.00 0.00 0.00 0.00 0.00 0.00 0.00 0.00 0.00 0.00 0.00 0.00 0.00 0.00 0.00 0.00 0.00 0.00 0.00 0.00 0.00 0.00 0.00 0.00 0.00 0.00 0.00 0.00
0.00 0.00 0.00 0.00 0.00 0.00 0.00 0.00 0.00 0.00 0.00 0.00 0.00 0.00 0.00 0.00 0.00 0.00 0.00 0.00 0.00 0.00 0.00 0.00 0.00 0.00 0.00 0.00 0.00 0.00 0.00 0.00 0.00 0.00 0.00 0.00 0.00 0.00 0.00 0.00 0.00 0.00 0.00 0.00 0.00
0.00 0.00 0.00 0.00 0.00 0.00 0.00 0.00 0.00 0.00 0.00 0.00 0.00 0.00 0.00 0.00 0.00 0.00 0.00 0.00 0.00 0.00 0.00 0.00 0.00 0.00 0.00 0.00 0.00 0.00 0.00 0.00 0.00 0.00 0.00 0.00 0.00 0.00 0.00 0.00 0.00 0.00 0.00 0.00 0.00
0.00 0.00 0.00 0.00 0.00 0.00 0.00 0.00 0.00 0.00 0.00 0.00 0.00 0.00 0.00 0.00 0.00 0.00 0.00 0.00 0.00 0.00 0.00 0.00 0.00 0.00 0.00 0.00 0.00 0.00 0.00 0.00 0.00 0.00 0.00 0.00 0.00 0.00 0.00 0.00 0.00 0.00 0.00 0.00 0.00
0.00 0.00 0.00 0.00 0.00 0.00 0.00 0.00 0.00 0.00 0.00 0.00 0.00 0.00 0.00 0.00 0.00 0.00 0.00 0.00 0.00 0.00 0.00 0.00 0.00 0.00 0.00 0.00 0.00 0.00 0.00 0.00 0.00 0.00 0.00 0.00 0.00 0.00 0.00 0.00 0.00 0.00 0.00 0.00 0.00
0.00 0.00 0.00 0.00 0.00 0.00 0.00 0.00 0.00 0.00 0.00 0.00 0.00 0.00 0.00 0.00 0.00 0.00 0.00 0.00 0.00 0.00 0.00 0.00 0.00 0.00 0.00 0.00 0.00 0.00 0.00 0.00 0.00 0.00 0.00 0.00 0.00 0.00 0.00 0.00 0.00 0.00 0.00 0.00 0.00
0.00 0.00 0.00 0.00 0.00 0.00 0.00 0.00 0.00 0.00 0.00 0.00 0.00 0.00 0.00 0.00 0.00 0.00 0.00 0.00 0.00 0.00 0.00 0.00 0.00 0.00 0.00 0.00 0.00 0.00 0.00 0.00 0.00 0.00 0.00 0.00 0.00 0.00 0.00 0.00 0.00 0.00 0.00 0.00 0.00
0.00 0.00 0.00 0.00 0.00 0.00 0.00 0.00 0.00 0.00 0.00 0.00 0.00 0.00 0.00 0.00 0.00 0.00 0.00 0.00 0.00 0.00 0.00 0.00 0.00 0.00 0.00 0.00 0.00 0.00 0.00 0.00 0.00 0.00 0.00 0.00 0.00 0.00 0.00 0.01 0.00 0.01 0.01 0.01 0.00
0.00 0.00 0.00 0.00 0.00 0.00 0.00 0.00 0.00 0.00 0.00 0.00 0.00 0.00 0.00 0.00 0.00 0.00 0.00 0.00 0.00 0.00 0.00 0.00 0.00 0.00 0.00 0.00 0.00 0.00 0.00 0.00 0.00 0.00 0.00 0.00 0.00 0.00 0.00 0.01 0.00 0.02 0.01 0.01 0.01
0.00 0.00 0.00 0.00 0.00 0.00 0.00 0.00 0.00 0.00 0.00 0.00 0.00 0.00 0.00 0.00 0.00 0.00 0.00 0.00 0.00 0.00 0.00 0.00 0.01 0.00 0.00 0.00 0.00 0.00 0.00 0.00 0.00 0.00 0.00 0.00 0.00 0.00 0.00 0.00 0.00 0.00 0.02 0.01 0.01
0.00 0.00 0.00 0.00 0.00 0.00 0.00 0.00 0.00 0.00 0.00 0.00 0.00 0.00 0.00 0.00 0.00 0.00 0.00 0.00 0.00 0.00 0.00 0.00 0.01 0.00 0.00 0.00 0.00 0.00 0.00 0.00 0.00 0.00 0.00 0.00 0.00 0.00 0.00 0.00 0.00 0.00 0.00 0.01 0.01
0.00 0.00 0.00 0.00 0.00 0.00 0.00 0.00 0.00 0.00 0.00 0.00 0.00 0.00 0.00 0.00 0.00 0.00 0.00 0.00 0.00 0.00 0.00 0.00 0.01 0.01 0.00 0.00 0.00 0.00 0.00 0.00 0.00 0.00 0.00 0.00 0.00 0.00 0.00 0.00 0.00 0.00 0.00 0.01 0.01
0.00 0.00 0.00 0.00 0.00 0.00 0.00 0.00 0.00 0.00 0.00 0.00 0.00 0.00 0.00 0.00 0.00 0.00 0.00 0.00 0.00 0.00 0.00 0.00 0.01 0.00 0.00 0.00 0.00 0.00 0.00 0.00 0.00 0.00 0.00 0.00 0.00 0.00 0.00 0.00 0.00 0.00 0.00 0.00 0.00
0.00 0.00 0.00 0.00 0.00 0.00 0.00 0.00 0.00 0.00 0.00 0.00 0.00 0.00 0.00 0.00 0.00 0.00 0.00 0.00 0.00 0.00 0.00 0.00 0.01 0.00 0.00 0.00 0.00 0.00 0.00 0.00 0.01 0.00 0.00 0.00 0.00 0.00 0.00 0.00 0.00 0.00 0.00 0.00 0.00
0.00 0.00 0.00 0.00 0.00 0.00 0.00 0.00 0.00 0.00 0.00 0.00 0.00 0.00 0.00 0.00 0.00 0.00 0.00 0.00 0.00 0.00 0.00 0.01 0.01 0.01 0.01 0.00 0.00 0.00 0.00 0.00 0.00 0.00 0.00 0.00 0.00 0.00 0.00 0.00 0.00 0.00 0.00 0.00 0.00
0.00 0.00 0.00 0.00 0.00 0.00 0.00 0.00 0.00 0.00 0.00 0.00 0.00 0.00 0.00 0.00 0.00 0.00 0.00 0.00 0.00 0.00 0.00 0.00 0.00 0.00 0.00 0.00 0.00 0.00 0.00 0.00 0.01 0.00 0.01 0.01 0.00 0.00 0.00 0.00 0.00 0.00 0.00 0.00 0.00
MSLP
1018.86 1018.62 1018.34 1018.13 1017.90 1017.65 1017.53 1017.37 1017.16 1016.91 1016.66 1016.43 1016.17 1015.98 1015.62 1015.28 1014.82 1014.49 1013.89 1014.07 1013.86 1013.54 1013.17 1012.82 1012.57 1012.49 1012.38 1012.35 1012.53 1012.66 1012.16 1011.74 1011.65 1011.44 1010.62 1010.76 1010.22 1009.85 1009.67 1009.21 1008.30 1007.65 1006.75 1006.25 1005.96
1018.83 1018.50 1018.26 1017.97 1017.74 1017.59 1017.47 1017.27 1017.00 1016.81 1016.60 1016.46 1016.26 1015.97 1015.66 1015.41 1014.95 1013.99 1013.82 1013.79 1013.77 1013.62 1013.21 1012.77 1012.49 1012.46 1012.32 1012.57 1012.69 1012.40 1012.19 1011.98 1012.03 1011.58 1011.12 1011.12 1010.92 1009.88 1009.62 1008.88 1008.22 1007.30 1006.48 1006.42 1006.10
1018.85 1018.49 1018.20 1017.90 1017.66 1017.45 1017.30 1017.17 1016.92 1016.69 1016.49 1016.34 1016.13 1015.84 1015.52 1015.36 1014.52 1013.73 1013.53 1013.67 1013.72 1013.64 1013.44 1013.19 1012.90 1012.59 1012.43 1012.67 1012.87 1012.91 1012.21 1012.32 1011.94 1011.84 1011.46 1011.23 1010.69 1010.05 1009.29 1008.52 1008.12 1007.34 1006.28 1006.23 1006.12
1018.78 1018.45 1018.05 1017.81 1017.57 1017.37 1017.20 1017.06 1016.88 1016.61 1016.39 1016.13 1015.84 1015.53 1015.15 1015.04 1014.35 1013.48 1013.53 1013.68 1013.74 1013.65 1013.29 1012.99 1012.72 1012.54 1012.75 1012.78 1013.13 1012.89 1012.54 1012.43 1011.97 1011.71 1011.48 1010.97 1010.48 1009.79 1009.23 1008.38 1007.85 1007.27 1006.65 1006.34 1006.10
1018.75 1018.37 1018.04 1017.75 1017.51 1017.20 1016.94 1016.78 1016.69 1016.50 1016.37 1016.09 1015.65 1015.11 1014.93 1014.27 1013.76 1013.53 1013.58 1013.66 1013.72 1013.59 1013.34 1013.13 1012.96 1012.98 1012.93 1013.05 1013.05 1012.84 1012.66 1012.50 1012.00 1011.59 1010.98 1010.71 1010.09 1009.52 1008.88 1008.12 1007.60 1007.06 1006.47 1006.22 1005.87
1018.67 1018.23 1017.93 1017.63 1017.34 1017.04 1016.74 1016.55 1016.48 1016.37 1016.21 1015.98 1015.61 1015.09 1014.50 1013.81 1013.48 1013.52 1013.51 1013.64 1013.61 1013.49 1013.29 1013.23 1013.09 1013.24 1013.23 1013.21 1013.08 1012.90 1012.71 1012.16 1011.60 1011.11 1010.78 1010.20 1009.63 1009.47 1008.28 1008.19 1007.37 1006.91 1006.29 1005.94 1005.88
1018.58 1018.12 1017.79 1017.53 1017.18 1016.92 1016.64 1016.38 1016.27 1016.21 1016.14 1015.90 1015.62 1015.25 1014.46 1013.81 1013.34 1013.38 1013.39 1013.41 1013.53 1013.49 1013.24 1013.09 1013.08 1013.07 1013.18 1013.02 1013.18 1012.90 1012.61 1011.83 1011.41 1011.05 1010.56 1010.29 1008.89 1008.76 1008.71 1008.27 1007.63 1007.09 1006.49 1005.81 1005.55
1018.51 1018.01 1017.60 1017.23 1016.95 1016.72 1016.45 1016.23 1016.16 1016.06 1016.06 1015.90 1015.55 1015.08 1013.92 1013.24 1013.24 1013.16 1013.18 1013.03 1013.19 1013.37 1013.34 1013.18 1013.16 1013.02 1013.06 1013.17 1012.96 1012.68 1012.71 1011.59 1011.07 1011.08 1010.47 1010.37 1008.64 1008.59 1008.54 1008.23 1007.67 1007.21 1006.68 1005.82 1005.27
1018.44 1017.88 1017.40 1016.99 1016.68 1016.46 1016.21 1015.97 1015.88 1015.85 1015.82 1015.65 1015.42 1014.90 1013.54 1012.99 1012.90 1012.60 1012.62 1012.66 1012.79 1012.90 1012.94 1013.00 1013.16 1013.23 1013.31 1012.94 1012.40 1012.45 1011.73 1011.52 1011.09 1010.83 1010.51 1010.14 1008.36 1008.47 1008.34 1008.19 1007.62 1007.02 1006.49 1005.71 1004.80
1018.32 1017.74 1017.23 1016.87 1016.53 1016.26 1015.98 1015.79 1015.82 1015.77 1015.69 1015.55 1015.45 1015.16 1013.45 1013.13 1012.73 1012.35 1012.42 1012.58 1012.60 1012.64 1012.65 1013.02 1013.24 1013.10 1013.01 1012.73 1012.31 1012.09 1011.78 1011.41 1011.09 1010.54 1010.02 1009.55 1007.72 1007.96 1008.08 1007.87 1007.23 1006.72 1006.13 1005.42 1004.36
1018.31 1017.64 1017.08 1016.67 1016.35 1016.19 1015.92 1015.87 1015.97 1015.65 1015.26 1015.36 1015.18 1014.57 1013.61 1013.00 1012.75 1012.33 1012.32 1012.51 1012.64 1012.74 1012.70 1013.19 1013.07 1012.58 1012.57 1012.69 1012.87 1012.68 1012.09 1011.09 1010.75 1010.41 1009.84 1008.87 1007.23 1007.21 1007.35 1007.10 1006.63 1006.25 1005.58 1004.96 1004.05
1018.29 1017.59 1016.98 1016.52 1016.15 1016.07 1015.79 1015.58 1015.75 1015.76 1015.35 1014.83 1014.69 1014.40 1013.67 1013.47 1012.93 1012.20 1012.38 1012.57 1012.73 1012.67 1013.07 1013.03 1012.40 1012.43 1012.70 1012.63 1012.67 1012.39 1011.64 1010.64 1010.03 1010.06 1009.79 1008.59 1006.87 1006.39 1006.58 1006.11 1005.73 1005.45 1004.99 1004.44 1003.60
1018.28 1017.59 1016.95 1016.52 1016.18 1016.10 1015.88 1015.80 1015.47 1015.43 1015.23 1014.43 1014.02 1013.54 1013.22 1013.43 1012.91 1012.41 1012.53 1012.58 1012.65 1012.81 1012.85 1013.00 1012.33 1012.39 1012.47 1012.36 1012.33 1012.03 1011.48 1010.74 1010.29 1009.86 1009.62 1008.50 1006.46 1005.36 1005.45 1005.31 1005.14 1004.93 1004.48 1003.89 1003.07
1018.30 1017.49 1016.90 1016.36 1016.48 1016.23 1015.78 1015.64 1015.63 1015.36 1014.96 1014.27 1013.51 1012.98 1012.95 1013.07 1012.76 1012.59 1012.58 1012.75 1012.63 1012.75 1013.02 1012.83 1012.57 1012.50 1012.20 1012.16 1012.17 1011.57 1011.43 1011.16 1010.57 1010.04 1008.97 1008.95 1006.03 1005.01 1004.78 1004.74 1004.30 1004.08 1003.78 1003.37 1002.64
1018.13 1017.40 1016.77 1016.13 1016.19 1015.94 1015.81 1015.47 1015.36 1015.34 1014.83 1014.14 1013.21 1012.78 1012.92 1013.08 1012.89 1012.48 1012.60 1012.54 1012.78 1012.92 1013.46 1012.60 1012.47 1012.16 1012.02 1012.10 1012.15 1011.37 1011.25 1010.88 1010.35 1009.70 1009.03 1008.19 1007.74 1003.62 1004.48 1004.08 1003.84 1003.70 1003.50 1003.17 1002.58
1018.00 1017.39 1016.84 1016.42 1016.19 1015.68 1015.67 1015.45 1015.34 1015.23 1014.56 1013.98 1013.45 1013.21 1013.23 1013.10 1013.04 1012.83 1012.91 1013.12 1013.52 1013.44 1013.36 1012.87 1012.73 1012.64 1012.15 1011.98 1011.77 1011.50 1011.11 1010.32 1009.92 1009.76 1008.74 1007.33 1007.21 1003.73 1003.79 1003.69 1003.43 1003.41 1003.35 1002.96 1002.37
1018.01 1017.18 1016.85 1016.40 1016.04 1015.79 1015.67 1015.40 1015.45 1015.01 1015.15 1014.40 1013.93 1013.64 1013.82 1013.45 1013.32 1013.25 1013.18 1013.29 1013.70 1013.71 1013.30 1012.79 1012.42 1012.42 1012.41 1011.74 1011.46 1011.57 1011.31 1010.00 1009.62 1009.27 1007.80 1007.41 1006.45 1004.16 1003.92 1003.56 1003.53 1003.22 1002.96 1002.81 1002.38
1017.85 1016.90 1016.39 1016.02 1015.83 1015.82 1015.59 1015.34 1015.21 1015.32 1014.98 1014.74 1014.40 1014.01 1014.04 1013.96 1013.72 1013.60 1013.56 1013.54 1013.94 1014.14 1013.77 1013.14 1012.06 1012.16 1012.17 1012.07 1011.78 1011.52 1011.75 1010.90 1009.98 1008.98 1007.85 1007.65 1005.45 1003.80 1003.82 1003.30 1003.50 1003.32 1003.11 1002.73 1002.30
1017.71 1016.65 1016.21 1015.85 1015.60 1015.53 1015.46 1015.58 1015.69 1015.69 1015.55 1015.26 1014.84 1014.50 1014.36 1014.33 1014.46 1014.15 1013.78 1013.64 1013.70 1013.95 1013.92 1013.22 1012.39 1011.70 1011.39 1011.50 1011.85 1011.29 1011.63 1011.65 1011.07 1010.20 1009.27 1006.77 1005.38 1004.26 1003.54 1003.36 1003.18 1002.96 1002.82 1002.43 1002.04
1018.51 1017.50 1016.55 1015.96 1015.65 1015.45 1015.72 1016.42 1016.36 1016.23 1016.09 1015.76 1015.35 1015.02 1014.79 1014.64 1014.75 1014.56 1013.84 1013.42 1013.37 1013.75 1014.00 1013.66 1012.52 1011.50 1011.50 1011.18 1011.10 1011.42 1011.78 1011.94 1012.35 1010.82 1008.77 1006.60 1005.41 1003.78 1003.54 1003.23 1003.09 1002.94 1002.32 1002.15 1001.90
1018.49 1017.54 1016.43 1015.97 1015.67 1016.01 1016.86 1017.34 1017.01 1016.57 1016.47 1016.22 1015.78 1015.65 1015.52 1015.59 1015.41 1015.07 1014.15 1013.58 1013.56 1013.70 1014.07 1013.87 1013.65 1011.75 1011.32 1010.56 1010.50 1011.19 1011.60 1012.49 1012.78 1011.89 1009.96 1007.18 1004.54 1003.75 1003.09 1003.03 1002.96 1002.84 1002.58 1002.36 1002.03
1019.96 1018.34 1016.77 1016.00 1016.74 1018.22 1018.31 1018.51 1018.04 1016.96 1016.63 1016.34 1016.17 1016.15 1016.27 1016.27 1015.88 1015.37 1014.64 1014.14 1013.96 1014.02 1013.94 1013.84 1013.25 1011.92 1010.83 1009.85 1010.12 1010.57 1011.25 1012.51 1012.31 1011.38 1010.32 1008.22 1004.11 1003.43 1003.18 1003.29 1003.31 1002.82 1002.24 1001.68 1001.47
1021.23 1019.75 1017.49 1017.06 1018.02 1018.85 1019.15 1019.00 1018.61 1017.67 1017.23 1017.01 1016.72 1016.53 1016.86 1016.87 1016.79 1015.77 1014.87 1014.27 1014.22 1014.15 1014.00 1013.94 1013.47 1012.17 1010.17 1010.31 1010.43 1010.89 1011.34 1011.94 1011.89 1011.54 1009.84 1008.31 1004.46 1004.02 1003.87 1003.64 1003.47 1002.95 1002.28 1001.42 1000.76
1021.77 1020.62 1019.35 1019.04 1020.03 1020.07 1019.95 1019.25 1018.82 1018.15 1017.80 1017.82 1017.25 1016.97 1016.99 1016.84 1016.94 1016.04 1015.12 1014.52 1014.49 1014.30 1013.98 1014.01 1013.24 1012.51 1011.35 1010.52 1010.59 1010.59 1010.33 1010.72 1011.24 1010.61 1009.17 1007.45 1005.15 1004.36 1004.33 1004.06 1003.91 1003.39 1002.42 1001.29 1000.71
1022.18 1021.95 1021.84 1020.73 1020.44 1020.65 1020.70 1020.01 1019.15 1018.53 1018.23 1018.03 1017.45 1017.38 1017.62 1017.16 1016.58 1015.66 1015.18 1014.59 1014.15 1013.93 1013.68 1013.56 1012.76 1012.15 1011.41 1010.60 1010.11 1009.49 1009.31 1009.67 1009.85 1009.31 1008.77 1007.43 1006.86 1005.61 1005.19 1004.90 1004.35 1003.80 1002.72 1001.47 1000.54
1022.73 1022.52 1022.14 1021.55 1021.16 1020.85 1020.54 1019.80 1019.32 1018.84 1018.84 1018.09 1017.76 1017.33 1017.34 1017.14 1016.69 1015.55 1015.43 1015.06 1014.37 1013.66 1013.62 1013.50 1012.62 1012.07 1011.08 1010.39 1009.48 1008.35 1008.34 1008.45 1008.38 1008.22 1008.07 1007.67 1006.60 1005.67 1005.64 1005.42 1004.65 1003.77 1003.05 1001.98 1000.97
1023.29 1023.02 1022.77 1021.84 1021.18 1020.93 1020.06 1019.52 1019.15 1019.25 1018.50 1018.02 1017.79 1017.47 1016.80 1016.08 1015.47 1014.91 1014.54 1013.71 1013.62 1013.52 1013.67 1013.74 1012.78 1012.13 1010.56 1009.98 1009.08 1007.84 1007.28 1007.62 1007.83 1008.14 1008.15 1007.17 1006.06 1006.36 1005.75 1005.36 1004.70 1003.96 1003.23 1002.25 1001.37
Thickness
5701 5701 5701 5700 5699 5699 5699 5700 5701 5702 5703 5703 5704 5705 5706 5707 5709 5710 5709 5708 5707 5708 5709 5709 5708 5705 5704 5699 5697 5691 5682 5678 5680 5680 5696 5696 5699 5714 5718 5713 5722 5735 5752 5768 5783
5700 5701 5700 5699 5699 5699 5698 5700 5701 5701 5702 5702 5702 5702 5702 5702 5704 5708 5707 5704 5702 5701 5701 5700 5696 5694 5689 5684 5682 5679 5670 5669 5674 5681 5681 5682 5680 5695 5696 5701 5708 5722 5748 5759 5771
5699 5700 5699 5698 5698 5699 5699 5699 5700 5700 5700 5700 5699 5699 5699 5698 5702 5700 5702 5698 5695 5694 5693 5690 5686 5683 5677 5674 5668 5661 5661 5659 5664 5666 5672 5667 5671 5683 5685 5688 5697 5705 5728 5746 5758
5699 5700 5701 5700 5699 5699 5699 5699 5699 5699 5698 5697 5698 5697 5697 5695 5684 5697 5693 5689 5685 5683 5683 5680 5677 5669 5661 5657 5656 5652 5655 5652 5655 5659 5657 5657 5666 5667 5675 5684 5696 5704 5715 5730 5743
5698 5700 5700 5700 5700 5700 5701 5700 5698 5697 5695 5694 5694 5694 5693 5692 5686 5689 5684 5680 5676 5675 5669 5665 5660 5653 5647 5645 5645 5641 5642 5642 5646 5648 5652 5653 5655 5659 5664 5680 5690 5696 5706 5714 5731
5698 5700 5701 5700 5701 5701 5701 5699 5697 5694 5692 5690 5689 5688 5687 5676 5685 5680 5676 5672 5668 5665 5661 5657 5651 5645 5638 5634 5633 5635 5632 5633 5636 5640 5643 5644 5651 5649 5667 5668 5678 5685 5695 5705 5719
5698 5700 5700 5700 5700 5700 5699 5697 5695 5691 5687 5684 5682 5679 5678 5673 5677 5672 5667 5663 5659 5655 5650 5650 5646 5638 5632 5626 5626 5624 5618 5626 5629 5632 5634 5640 5649 5643 5653 5659 5664 5669 5682 5694 5708
5697 5699 5700 5700 5700 5698 5697 5695 5691 5687 5683 5679 5677 5674 5669 5675 5668 5664 5660 5657 5654 5649 5645 5642 5637 5630 5625 5622 5619 5613 5609 5612 5625 5621 5629 5630 5636 5645 5649 5650 5653 5659 5668 5683 5697
5695 5698 5699 5700 5699 5697 5695 5693 5689 5684 5679 5675 5672 5667 5663 5671 5663 5665 5662 5652 5648 5644 5642 5637 5627 5617 5614 5610 5611 5605 5608 5606 5610 5619 5617 5619 5633 5637 5641 5639 5644 5653 5660 5673 5688
5694 5696 5698 5698 5697 5695 5693 5690 5684 5679 5673 5669 5663 5657 5665 5655 5660 5661 5660 5653 5643 5636 5630 5622 5612 5608 5605 5604 5597 5600 5601 5605 5601 5613 5616 5611 5630 5631 5630 5628 5637 5645 5654 5666 5681
5691 5694 5695 5696 5695 5692 5689 5685 5681 5675 5670 5661 5655 5651 5654 5656 5656 5652 5653 5644 5636 5628 5617 5610 5603 5599 5600 5598 5594 5592 5594 5600 5605 5609 5604 5609 5623 5626 5623 5624 5630 5636 5646 5658 5674
5689 5691 5693 5693 5692 5688 5685 5681 5672 5666 5655 5658 5651 5646 5648 5647 5639 5646 5646 5630 5622 5613 5610 5606 5600 5603 5596 5593 5587 5590 5592 5600 5607 5603 5593 5600 5612 5619 5615 5620 5624 5628 5637 5650 5669
5686 5688 5690 5689 5688 5683 5679 5672 5668 5662 5648 5650 5650 5646 5646 5642 5633 5635 5634 5625 5616 5608 5606 5592 5599 5597 5590 5587 5582 5585 5586 5591 5589 5594 5588 5588 5599 5616 5615 5616 5616 5620 5635 5648 5665
5682 5685 5686 5687 5682 5677 5674 5668 5661 5657 5637 5640 5642 5644 5643 5636 5627 5633 5630 5621 5614 5604 5598 5593 5594 5586 5584 5578 5579 5577 5587 5582 5578 5575 5571 5575 5576 5603 5606 5601 5608 5617 5628 5638 5657
5680 5681 5682 5682 5678 5674 5668 5664 5659 5652 5620 5640 5638 5648 5637 5627 5625 5624 5625 5617 5604 5601 5591 5592 5587 5582 5577 5576 5577 5580 5584 5579 5576 5573 5569 5572 5549 5603 5595 5593 5599 5606 5617 5628 5642
5676 5677 5677 5675 5670 5669 5662 5658 5652 5635 5617 5629 5633 5627 5623 5623 5619 5619 5615 5612 5602 5594 5589 5590 5587 5574 5578 5577 5578 5579 5576 5581 5574 5566 5553 5572 5554 5590 5587 5588 5597 5603 5608 5617 5630
5672 5674 5672 5668 5666 5662 5657 5652 5634 5623 5626 5622 5622 5624 5614 5613 5611 5609 5605 5600 5591 5582 5584 5587 5581 5576 5570 5572 5576 5568 5564 5569 5564 5557 5562 5564 5559 5581 5585 5590 5594 5598 5604 5611 5620
5669 5672 5669 5665 5662 5657 5653 5643 5623 5620 5619 5625 5620 5619 5608 5608 5609 5605 5599 5593 5587 5578 5573 5570 5573 5572 5569 5563 5560 5562 5557 5559 5547 5558 5566 5559 5561 5581 5585 5592 5589 5591 5596 5603 5612
5663 5666 5665 5662 5659 5654 5647 5623 5618 5613 5615 5611 5613 5606 5606 5604 5596 5594 5592 5590 5588 5579 5570 5566 5572 5579 5573 5567 5559 5560 5552 5556 5545 5547 5535 5566 5573 5581 5582 5581 5583 5585 5590 5596 5606
5652 5654 5656 5655 5653 5648 5634 5610 5610 5609 5606 5604 5597 5604 5596 5599 5590 5587 5588 5593 5588 5580 5573 5569 5563 5577 5566 5567 5564 5556 5555 5544 5529 5536 5543 5560 5561 5570 5570 5573 5579 5579 5589 5593 5600
5646 5649 5650 5648 5646 5635 5613 5602 5601 5604 5600 5594 5594 5592 5591 5583 5584 5582 5585 5590 5583 5578 5569 5562 5553 5569 5566 5564 5561 5554 5546 5530 5518 5526 5532 5541 5570 5580 5579 5578 5576 5579 5584 5587 5593
5626 5636 5641 5642 5628 5600 5599 5589 5590 5596 5596 5592 5589 5586 5579 5576 5575 5577 5578 5576 5577 5570 5564 5563 5558 5555 5565 5576 5567 5559 5547 5525 5531 5540 5525 5531 5567 5587 5583 5578 5573 5578 5587 5594 5598
5612 5615 5631 5629 5609 5596 5586 5582 5581 5586 5584 5581 5578 5579 5571 5567 5558 5568 5575 5578 5571 5565 5558 5558 5550 5545 5567 5563 5556 5541 5539 5526 5524 5516 5531 5532 5569 5577 5572 5569 5571 5575 5582 5594 5604
5601 5608 5610 5604 5588 5582 5575 5576 5574 5580 5576 5570 5571 5571 5567 5565 5560 5559 5564 5569 5562 5560 5560 5552 5551 5550 5549 5553 5546 5535 5546 5539 5517 5522 5535 5543 5559 5564 5562 5561 5560 5566 5578 5592 5601
5586 5584 5575 5586 5581 5570 5564 5564 5566 5567 5568 5565 5565 5561 5553 5551 5556 5560 5561 5564 5565 5560 5557 5552 5549 5554 5554 5554 5550 5549 5545 5540 5532 5537 5529 5543 5536 5542 5547 5547 5551 5556 5568 5583 5596
5573 5568 5567 5566 5560 5562 5559 5562 5560 5560 5553 5557 5554 5558 5552 5545 5547 5550 5550 5548 5553 5558 5551 5549 5545 5547 5548 5553 5553 5552 5548 5544 5545 5546 5535 5531 5537 5548 5538 5536 5544 5555 5561 5571 5584
5554 5553 5552 5557 5554 5551 5559 5558 5557 5547 5553 5549 5547 5544 5549 5551 5556 5557 5554 5558 5552 5548 5542 5537 5540 5538 5547 5553 5549 5546 5551 5545 5540 5530 5524 5533 5547 5530 5528 5530 5536 5546 5554 5565 5574